QPF
0.08 0.07 0.06 0.06 0.05 0.06 0.08 0.10 0.11 0.10 0.07 0.06 0.05 0.03 0.03 0.03 0.03 0.04 0.04 0.02 0.02 0.01 0.01 0.01 0.01 0.01 0.01 0.02 0.02 0.02 0.03 0.04 0.03 0.03 0.03 0.04 0.06 0.07
0.07 0.06 0.05 0.05 0.05 0.05 0.06 0.07 0.08 0.08 0.06 0.05 0.05 0.05 0.04 0.03 0.02 0.02 0.02 0.03 0.02 0.01 0.01 0.01 0.01 0.01 0.01 0.01 0.01 0.02 0.02 0.02 0.03 0.03 0.03 0.03 0.04 0.06
0.05 0.05 0.04 0.04 0.04 0.03 0.04 0.05 0.06 0.06 0.05 0.04 0.04 0.05 0.06 0.05 0.04 0.03 0.02 0.03 0.02 0.01 0.01 0.01 0.01 0.02 0.02 0.02 0.02 0.02 0.02 0.02 0.03 0.05 0.05 0.04 0.03 0.03
0.04 0.04 0.03 0.03 0.03 0.03 0.03 0.04 0.06 0.06 0.05 0.04 0.03 0.04 0.06 0.06 0.05 0.04 0.03 0.03 0.02 0.02 0.02 0.01 0.02 0.02 0.03 0.03 0.02 0.02 0.02 0.02 0.03 0.04 0.05 0.06 0.04 0.03
0.03 0.03 0.03 0.04 0.03 0.02 0.03 0.03 0.04 0.05 0.05 0.04 0.04 0.04 0.04 0.05 0.05 0.04 0.03 0.04 0.03 0.04 0.04 0.02 0.02 0.02 0.03 0.03 0.04 0.03 0.03 0.03 0.02 0.03 0.04 0.05 0.05 0.03
0.04 0.04 0.03 0.03 0.02 0.02 0.02 0.04 0.04 0.04 0.05 0.04 0.04 0.04 0.04 0.05 0.05 0.05 0.05 0.05 0.04 0.04 0.04 0.02 0.02 0.02 0.02 0.03 0.04 0.04 0.04 0.04 0.03 0.03 0.03 0.03 0.04 0.03
0.04 0.04 0.04 0.03 0.02 0.02 0.02 0.03 0.04 0.05 0.05 0.05 0.04 0.04 0.04 0.05 0.05 0.05 0.05 0.06 0.06 0.05 0.05 0.03 0.02 0.03 0.03 0.03 0.04 0.04 0.04 0.04 0.04 0.04 0.03 0.03 0.03 0.02
0.03 0.03 0.03 0.03 0.03 0.04 0.03 0.03 0.04 0.05 0.05 0.05 0.05 0.04 0.04 0.04 0.05 0.05 0.06 0.07 0.07 0.06 0.06 0.05 0.04 0.04 0.04 0.03 0.03 0.03 0.03 0.03 0.04 0.04 0.04 0.03 0.03 0.02
0.03 0.04 0.04 0.02 0.03 0.04 0.06 0.06 0.05 0.05 0.06 0.07 0.06 0.05 0.04 0.04 0.04 0.04 0.05 0.07 0.06 0.05 0.06 0.07 0.07 0.07 0.06 0.04 0.03 0.02 0.03 0.03 0.03 0.03 0.03 0.04 0.03 0.02
0.04 0.05 0.05 0.05 0.04 0.05 0.06 0.08 0.09 0.07 0.05 0.05 0.05 0.05 0.03 0.03 0.03 0.03 0.05 0.06 0.07 0.07 0.06 0.07 0.07 0.08 0.08 0.08 0.06 0.04 0.03 0.03 0.02 0.02 0.02 0.03 0.03 0.02
0.04 0.05 0.06 0.06 0.06 0.05 0.05 0.06 0.06 0.06 0.05 0.04 0.04 0.03 0.03 0.03 0.03 0.04 0.04 0.05 0.07 0.08 0.07 0.06 0.07 0.08 0.09 0.10 0.08 0.06 0.04 0.03 0.03 0.02 0.02 0.02 0.02 0.03
0.04 0.05 0.06 0.06 0.04 0.03 0.05 0.06 0.06 0.05 0.04 0.03 0.03 0.03 0.03 0.03 0.03 0.04 0.05 0.06 0.06 0.07 0.07 0.09 0.10 0.10 0.09 0.10 0.09 0.06 0.05 0.03 0.03 0.02 0.01 0.01 0.02 0.03
0.04 0.04 0.04 0.03 0.03 0.02 0.03 0.04 0.05 0.06 0.06 0.04 0.04 0.03 0.04 0.04 0.03 0.04 0.06 0.06 0.07 0.06 0.06 0.08 0.09 0.11 0.10 0.08 0.07 0.05 0.05 0.04 0.03 0.03 0.02 0.01 0.01 0.02
0.04 0.03 0.02 0.01 0.02 0.02 0.02 0.02 0.01 0.02 0.03 0.04 0.04 0.03 0.03 0.03 0.03 0.03 0.04 0.05 0.06 0.06 0.06 0.08 0.09 0.10 0.09 0.08 0.07 0.06 0.06 0.05 0.04 0.04 0.03 0.02 0.02 0.02
0.04 0.04 0.02 0.02 0.02 0.02 0.02 0.01 0.01 0.01 0.02 0.02 0.02 0.02 0.03 0.03 0.03 0.03 0.02 0.03 0.04 0.04 0.04 0.05 0.06 0.07 0.07 0.07 0.07 0.07 0.07 0.06 0.06 0.05 0.04 0.04 0.04 0.04
0.03 0.04 0.04 0.04 0.04 0.04 0.03 0.02 0.01 0.01 0.01 0.01 0.02 0.03 0.03 0.03 0.02 0.02 0.02 0.02 0.03 0.02 0.03 0.04 0.04 0.04 0.05 0.05 0.06 0.06 0.06 0.06 0.06 0.06 0.06 0.06 0.06 0.06
0.03 0.03 0.03 0.03 0.03 0.03 0.02 0.01 0.01 0.01 0.01 0.01 0.02 0.02 0.02 0.02 0.02 0.02 0.03 0.03 0.03 0.03 0.03 0.03 0.04 0.04 0.04 0.04 0.04 0.04 0.04 0.04 0.04 0.05 0.06 0.07 0.08 0.08
0.02 0.02 0.02 0.02 0.02 0.01 0.01 0.01 0.01 0.01 0.02 0.02 0.02 0.02 0.02 0.02 0.02 0.02 0.03 0.03 0.04 0.03 0.03 0.04 0.04 0.04 0.04 0.03 0.03 0.03 0.04 0.04 0.05 0.05 0.06 0.07 0.07 0.08
0.01 0.01 0.01 0.01 0.01 0.01 0.01 0.01 0.02 0.02 0.01 0.01 0.02 0.02 0.02 0.02 0.02 0.02 0.03 0.03 0.04 0.04 0.04 0.04 0.04 0.05 0.06 0.04 0.03 0.03 0.04 0.05 0.06 0.07 0.07 0.08 0.08 0.08
0.01 0.01 0.01 0.02 0.02 0.03 0.02 0.02 0.02 0.01 0.01 0.01 0.01 0.01 0.02 0.02 0.02 0.03 0.02 0.03 0.04 0.04 0.04 0.04 0.03 0.03 0.04 0.05 0.05 0.04 0.05 0.06 0.07 0.07 0.07 0.09 0.10 0.10
0.01 0.01 0.02 0.02 0.02 0.03 0.03 0.02 0.01 0.00 0.01 0.01 0.01 0.01 0.02 0.02 0.03 0.03 0.03 0.02 0.03 0.05 0.05 0.04 0.03 0.02 0.03 0.03 0.04 0.04 0.04 0.04 0.05 0.07 0.07 0.09 0.08 0.08
0.01 0.01 0.02 0.01 0.02 0.03 0.03 0.01 0.01 0.01 0.01 0.01 0.01 0.01 0.02 0.03 0.03 0.03 0.03 0.03 0.04 0.05 0.05 0.04 0.03 0.03 0.03 0.03 0.03 0.04 0.03 0.02 0.03 0.04 0.06 0.07 0.06 0.07
0.00 0.01 0.02 0.02 0.02 0.02 0.02 0.01 0.01 0.01 0.00 0.00 0.01 0.01 0.02 0.03 0.03 0.03 0.04 0.05 0.06 0.06 0.04 0.04 0.05 0.05 0.04 0.04 0.04 0.04 0.03 0.03 0.03 0.04 0.06 0.07 0.06 0.06
MSLP
1014.18 1014.25 1014.27 1014.24 1014.16 1014.02 1013.82 1013.57 1013.27 1012.95 1012.61 1012.27 1011.96 1011.69 1011.48 1011.33 1011.24 1011.19 1011.18 1011.18 1011.16 1011.12 1011.03 1010.90 1010.74 1010.56 1010.37 1010.22 1010.09 1010.01 1009.98 1009.97 1009.99 1010.00 1010.02 1010.03 1010.05 1010.09
1014.65 1014.72 1014.76 1014.75 1014.68 1014.54 1014.33 1014.06 1013.73 1013.36 1012.96 1012.56 1012.18 1011.84 1011.55 1011.32 1011.16 1011.05 1010.98 1010.91 1010.84 1010.74 1010.60 1010.42 1010.21 1010.00 1009.81 1009.65 1009.54 1009.49 1009.49 1009.52 1009.56 1009.60 1009.63 1009.64 1009.65 1009.66
1015.06 1015.12 1015.16 1015.16 1015.10 1014.97 1014.76 1014.48 1014.14 1013.73 1013.30 1012.84 1012.40 1012.00 1011.66 1011.37 1011.15 1010.98 1010.84 1010.71 1010.56 1010.38 1010.16 1009.91 1009.65 1009.38 1009.14 1008.96 1008.85 1008.80 1008.81 1008.87 1008.95 1009.02 1009.08 1009.11 1009.12 1009.13
1015.42 1015.45 1015.48 1015.47 1015.41 1015.29 1015.09 1014.81 1014.46 1014.04 1013.58 1013.09 1012.62 1012.18 1011.80 1011.47 1011.20 1010.98 1010.78 1010.58 1010.36 1010.10 1009.79 1009.45 1009.09 1008.74 1008.44 1008.20 1008.05 1007.99 1008.00 1008.08 1008.18 1008.29 1008.39 1008.45 1008.49 1008.52
1015.75 1015.74 1015.73 1015.70 1015.64 1015.52 1015.32 1015.05 1014.69 1014.27 1013.80 1013.31 1012.82 1012.36 1011.96 1011.61 1011.31 1011.05 1010.81 1010.55 1010.26 1009.91 1009.51 1009.07 1008.61 1008.16 1007.77 1007.45 1007.24 1007.14 1007.14 1007.22 1007.35 1007.50 1007.63 1007.74 1007.82 1007.88
1016.06 1015.99 1015.94 1015.89 1015.81 1015.68 1015.49 1015.21 1014.86 1014.44 1013.97 1013.48 1012.99 1012.53 1012.13 1011.77 1011.47 1011.19 1010.91 1010.61 1010.26 1009.84 1009.35 1008.81 1008.24 1007.69 1007.19 1006.79 1006.51 1006.36 1006.34 1006.41 1006.56 1006.74 1006.91 1007.07 1007.19 1007.29
1016.35 1016.22 1016.13 1016.04 1015.94 1015.80 1015.60 1015.33 1014.97 1014.56 1014.09 1013.61 1013.13 1012.68 1012.28 1011.93 1011.62 1011.34 1011.04 1010.71 1010.31 1009.83 1009.27 1008.65 1008.00 1007.35 1006.77 1006.29 1005.95 1005.75 1005.69 1005.76 1005.91 1006.11 1006.31 1006.50 1006.66 1006.78
1016.61 1016.43 1016.29 1016.17 1016.05 1015.89 1015.68 1015.40 1015.05 1014.63 1014.17 1013.70 1013.23 1012.79 1012.40 1012.05 1011.75 1011.46 1011.15 1010.80 1010.37 1009.85 1009.24 1008.57 1007.85 1007.15 1006.51 1005.98 1005.59 1005.35 1005.27 1005.31 1005.46 1005.66 1005.87 1006.08 1006.25 1006.38
1016.81 1016.60 1016.43 1016.28 1016.13 1015.96 1015.73 1015.44 1015.08 1014.67 1014.21 1013.73 1013.27 1012.84 1012.45 1012.10 1011.79 1011.50 1011.18 1010.81 1010.36 1009.82 1009.20 1008.51 1007.78 1007.06 1006.40 1005.85 1005.43 1005.17 1005.06 1005.08 1005.20 1005.38 1005.58 1005.76 1005.91 1006.03
1016.94 1016.70 1016.51 1016.34 1016.16 1015.96 1015.72 1015.42 1015.05 1014.64 1014.18 1013.71 1013.24 1012.81 1012.41 1012.06 1011.73 1011.42 1011.08 1010.70 1010.25 1009.71 1009.09 1008.41 1007.71 1007.01 1006.38 1005.84 1005.43 1005.16 1005.03 1005.02 1005.09 1005.20 1005.34 1005.46 1005.56 1005.62
1017.00 1016.75 1016.53 1016.33 1016.12 1015.90 1015.63 1015.32 1014.95 1014.53 1014.08 1013.61 1013.14 1012.70 1012.29 1011.91 1011.56 1011.21 1010.85 1010.45 1009.99 1009.47 1008.88 1008.25 1007.60 1006.97 1006.39 1005.89 1005.51 1005.25 1005.09 1005.02 1005.01 1005.03 1005.06 1005.07 1005.06 1005.04
1017.01 1016.74 1016.49 1016.24 1016.00 1015.74 1015.45 1015.12 1014.75 1014.34 1013.89 1013.43 1012.97 1012.52 1012.09 1011.68 1011.29 1010.91 1010.51 1010.09 1009.63 1009.12 1008.57 1008.00 1007.42 1006.87 1006.37 1005.94 1005.59 1005.33 1005.13 1004.99 1004.87 1004.76 1004.64 1004.50 1004.35 1004.20
1017.01 1016.69 1016.39 1016.10 1015.80 1015.50 1015.18 1014.84 1014.47 1014.07 1013.64 1013.19 1012.74 1012.29 1011.84 1011.41 1010.98 1010.55 1010.11 1009.66 1009.18 1008.69 1008.18 1007.67 1007.18 1006.72 1006.30 1005.94 1005.62 1005.35 1005.11 1004.87 1004.62 1004.35 1004.04 1003.72 1003.40 1003.11
1017.02 1016.65 1016.27 1015.91 1015.55 1015.20 1014.85 1014.49 1014.13 1013.74 1013.34 1012.93 1012.50 1012.05 1011.60 1011.14 1010.67 1010.19 1009.71 1009.22 1008.73 1008.24 1007.77 1007.31 1006.89 1006.51 1006.17 1005.86 1005.58 1005.29 1004.99 1004.65 1004.25 1003.80 1003.30 1002.78 1002.28 1001.83
1017.07 1016.61 1016.15 1015.70 1015.28 1014.87 1014.49 1014.13 1013.77 1013.42 1013.06 1012.68 1012.28 1011.85 1011.40 1010.92 1010.42 1009.90 1009.37 1008.84 1008.32 1007.83 1007.38 1006.97 1006.61 1006.29 1006.01 1005.74 1005.47 1005.16 1004.80 1004.35 1003.82 1003.20 1002.52 1001.81 1001.14 1000.54
1017.15 1016.60 1016.06 1015.53 1015.03 1014.58 1014.17 1013.80 1013.47 1013.15 1012.83 1012.50 1012.14 1011.73 1011.29 1010.80 1010.27 1009.71 1009.14 1008.57 1008.02 1007.52 1007.08 1006.69 1006.37 1006.09 1005.85 1005.62 1005.35 1005.02 1004.60 1004.06 1003.42 1002.66 1001.83 1000.98 1000.17 999.46
1017.23 1016.62 1016.00 1015.41 1014.86 1014.38 1013.96 1013.60 1013.28 1013.00 1012.72 1012.43 1012.11 1011.73 1011.29 1010.79 1010.24 1009.65 1009.04 1008.44 1007.87 1007.35 1006.90 1006.52 1006.22 1005.97 1005.75 1005.53 1005.27 1004.92 1004.47 1003.88 1003.16 1002.32 1001.41 1000.46 999.57 998.78
1017.29 1016.65 1016.00 1015.38 1014.82 1014.32 1013.91 1013.56 1013.27 1013.02 1012.78 1012.52 1012.21 1011.85 1011.41 1010.91 1010.34 1009.72 1009.09 1008.45 1007.86 1007.32 1006.87 1006.49 1006.19 1005.96 1005.75 1005.54 1005.28 1004.93 1004.47 1003.87 1003.14 1002.28 1001.35 1000.40 999.48 998.69
1017.31 1016.69 1016.06 1015.46 1014.91 1014.45 1014.05 1013.73 1013.47 1013.23 1013.01 1012.76 1012.46 1012.09 1011.65 1011.13 1010.54 1009.90 1009.25 1008.60 1007.99 1007.45 1006.99 1006.61 1006.31 1006.08 1005.88 1005.67 1005.42 1005.09 1004.65 1004.09 1003.39 1002.59 1001.71 1000.81 999.96 999.21
1017.30 1016.74 1016.18 1015.65 1015.17 1014.75 1014.40 1014.11 1013.86 1013.63 1013.40 1013.13 1012.81 1012.43 1011.96 1011.42 1010.81 1010.17 1009.51 1008.86 1008.25 1007.71 1007.25 1006.88 1006.58 1006.35 1006.15 1005.95 1005.72 1005.42 1005.03 1004.53 1003.92 1003.22 1002.46 1001.68 1000.94 1000.29
1017.28 1016.84 1016.39 1015.96 1015.57 1015.23 1014.93 1014.67 1014.42 1014.18 1013.92 1013.61 1013.25 1012.82 1012.32 1011.75 1011.13 1010.49 1009.83 1009.20 1008.62 1008.10 1007.65 1007.29 1007.00 1006.77 1006.58 1006.39 1006.18 1005.92 1005.58 1005.17 1004.67 1004.11 1003.50 1002.88 1002.30 1001.80
1017.29 1016.99 1016.68 1016.38 1016.10 1015.84 1015.59 1015.35 1015.10 1014.82 1014.51 1014.14 1013.72 1013.23 1012.69 1012.09 1011.47 1010.83 1010.21 1009.62 1009.07 1008.60 1008.19 1007.86 1007.59 1007.37 1007.17 1006.99 1006.80 1006.57 1006.30 1005.97 1005.60 1005.18 1004.73 1004.29 1003.89 1003.54
1017.37 1017.22 1017.06 1016.89 1016.71 1016.52 1016.32 1016.09 1015.81 1015.49 1015.11 1014.68 1014.18 1013.63 1013.04 1012.43 1011.81 1011.21 1010.63 1010.09 1009.62 1009.20 1008.85 1008.56 1008.32 1008.12 1007.93 1007.76 1007.58 1007.38 1007.15 1006.91 1006.63 1006.35 1006.06 1005.78 1005.54 1005.34
Thickness
5655 5653 5651 5650 5649 5648 5646 5642 5635 5631 5632 5636 5637 5638 5637 5634 5631 5629 5626 5623 5621 5618 5616 5615 5615 5614 5614 5615 5615 5617 5618 5619 5621 5623 5625 5628 5631 5634
5651 5649 5647 5645 5644 5642 5640 5638 5634 5628 5626 5630 5630 5631 5630 5628 5626 5623 5620 5617 5614 5611 5609 5608 5607 5607 5607 5607 5607 5607 5609 5610 5612 5614 5617 5620 5623 5627
5646 5645 5642 5640 5638 5636 5634 5632 5629 5626 5621 5623 5625 5625 5623 5621 5619 5617 5615 5612 5608 5605 5603 5602 5600 5599 5599 5599 5598 5599 5600 5602 5604 5606 5608 5611 5615 5619
5642 5640 5637 5636 5633 5630 5628 5626 5623 5621 5618 5616 5617 5617 5616 5615 5612 5610 5608 5607 5604 5601 5597 5596 5594 5592 5592 5591 5591 5591 5592 5593 5595 5597 5600 5603 5606 5609
5638 5636 5633 5630 5627 5624 5622 5620 5618 5617 5614 5611 5611 5610 5609 5607 5604 5602 5601 5599 5598 5596 5593 5590 5588 5586 5585 5584 5583 5584 5585 5586 5587 5589 5591 5594 5597 5601
5635 5632 5629 5625 5621 5619 5617 5614 5612 5609 5608 5605 5604 5603 5601 5600 5597 5593 5592 5591 5590 5589 5586 5584 5581 5579 5578 5577 5577 5577 5577 5577 5578 5580 5583 5585 5588 5592
5631 5628 5625 5621 5617 5613 5611 5607 5605 5602 5600 5597 5596 5595 5593 5590 5587 5586 5583 5582 5582 5580 5578 5576 5575 5573 5571 5570 5570 5570 5569 5570 5571 5572 5574 5577 5580 5583
5625 5622 5620 5616 5613 5609 5605 5602 5599 5596 5593 5590 5588 5586 5584 5583 5581 5578 5575 5573 5571 5572 5569 5568 5568 5566 5565 5565 5565 5564 5563 5563 5563 5564 5566 5568 5571 5575
5621 5618 5616 5613 5608 5604 5601 5598 5595 5592 5588 5584 5581 5579 5578 5577 5574 5571 5568 5565 5563 5563 5561 5560 5560 5558 5559 5560 5559 5558 5557 5556 5556 5557 5559 5560 5563 5566
5619 5615 5611 5607 5604 5599 5597 5594 5591 5588 5586 5582 5579 5576 5574 5571 5568 5565 5562 5560 5559 5556 5554 5551 5551 5551 5552 5552 5552 5551 5551 5550 5550 5550 5551 5553 5554 5557
5617 5613 5609 5604 5599 5595 5592 5589 5586 5584 5583 5580 5577 5573 5570 5566 5562 5558 5555 5551 5549 5548 5547 5543 5543 5543 5544 5543 5544 5543 5543 5543 5543 5543 5544 5546 5547 5549
5614 5611 5607 5602 5596 5591 5587 5584 5581 5580 5578 5576 5573 5570 5567 5563 5558 5552 5548 5544 5542 5541 5540 5537 5536 5534 5534 5536 5536 5536 5536 5536 5536 5536 5538 5539 5540 5541
5612 5609 5605 5599 5593 5588 5584 5581 5579 5576 5574 5572 5570 5568 5565 5560 5556 5551 5546 5541 5538 5536 5536 5533 5530 5527 5525 5526 5528 5530 5530 5530 5530 5531 5531 5533 5534 5535
5608 5606 5602 5596 5591 5586 5583 5581 5577 5573 5571 5569 5567 5564 5561 5558 5553 5549 5545 5541 5537 5534 5532 5529 5526 5523 5520 5520 5522 5524 5526 5526 5527 5527 5528 5528 5529 5530
5606 5603 5598 5593 5589 5586 5583 5580 5575 5572 5570 5567 5565 5562 5559 5555 5551 5547 5544 5540 5537 5534 5531 5529 5525 5523 5520 5519 5519 5520 5520 5522 5523 5523 5524 5524 5525 5526
5602 5599 5595 5592 5589 5586 5583 5580 5576 5573 5570 5567 5563 5560 5557 5553 5549 5545 5541 5538 5535 5533 5531 5529 5526 5523 5520 5519 5518 5517 5517 5517 5519 5519 5520 5521 5522 5523
5600 5598 5596 5594 5591 5588 5585 5582 5578 5574 5570 5566 5562 5558 5554 5550 5547 5543 5539 5536 5533 5531 5529 5527 5525 5523 5521 5518 5516 5515 5515 5515 5515 5516 5516 5516 5519 5520
5597 5596 5595 5593 5590 5587 5584 5581 5577 5573 5569 5565 5560 5556 5551 5547 5545 5542 5539 5535 5532 5529 5527 5525 5522 5520 5517 5516 5514 5513 5513 5512 5513 5513 5513 5514 5515 5517
5596 5596 5594 5591 5587 5585 5582 5578 5575 5571 5568 5563 5558 5553 5549 5545 5542 5540 5536 5533 5530 5528 5525 5523 5520 5517 5513 5512 5513 5511 5510 5510 5510 5510 5510 5511 5512 5514
5599 5597 5594 5590 5587 5583 5580 5577 5573 5569 5565 5561 5556 5552 5547 5543 5540 5537 5534 5531 5528 5526 5524 5521 5518 5514 5511 5509 5509 5509 5508 5508 5507 5507 5508 5509 5510 5511
5601 5598 5594 5590 5586 5582 5578 5575 5571 5567 5562 5558 5554 5549 5545 5541 5538 5536 5532 5529 5526 5523 5521 5518 5516 5514 5511 5508 5505 5506 5506 5506 5506 5505 5505 5505 5506 5507
5600 5597 5594 5590 5585 5581 5576 5572 5568 5564 5559 5556 5552 5547 5543 5540 5536 5533 5530 5527 5524 5522 5519 5517 5515 5512 5509 5506 5504 5504 5504 5504 5504 5503 5503 5503 5503 5504
5598 5595 5593 5589 5584 5580 5575 5570 5565 5560 5556 5552 5549 5545 5542 5538 5534 5531 5529 5526 5524 5521 5519 5516 5513 5510 5508 5505 5504 5503 5503 5502 5501 5500 5500 5501 5501 5501